COSMOS 1275 DEB, 42134

Orbit data source: Space-Track

COSMOS 1275 DEB, 42134 is space debris in LEO originally from a launch on Thu, 04 Jun 1981 UTC launched from the Plesetsk Missile And Space Complex (PKMTR). Debris objects in space refer to the collection of defunct objects orbiting the Earth. Examples of debris include non-operational satellites, rocket bodies, and fragments generated from explosions, collisions, or faulty payload assembly.

Loading next visibility...
Identifier
42134, 1981-053QW
Orbit
LEO
Country
Flag of CISCIS
Related business
Manufacturer
Unknown
Mission
Spacecraft
Bus & Motor
Unknown
Mass
Unknown
Launch date (UTC)
1981-06-04 (44 years ago)
Launch vehicle
Unknown
Launch site
Plesetsk Missile And Space Complex (PKMTR)
Object type
Payload
Rocket body
Debris
Shape & HBR
Unknown
Radar Cross Section
Small (<0.1 m²)

Expand to show TLE details & history
Last TLE update: 2 days ago

TLE from 2 days ago
0 COSMOS 1275 DEB
1 42134U 81053QW  25259.40368566  .00001376  00000-0  17730-2 0  9999
2 42134  83.0077  52.9207 0175850 259.2098  98.9211 13.55726572538422
Epoch: 2025-09-16T09:41Z
TLE epoch observation values (Epoch: 2025-09-16T09:41:18.441Z)
Latitude
0.00002°
Longitude
-88.00062°
Altitude
1,076.635 km
Speed
7.303 km/s
True Right ascension
03h 31m 40s
True Declination
0° 00' 00"
Sunlit
Object was in partial shadow at epoch
Visualization orbit readout
Latitude
Unknown
Longitude
Unknown
Altitude
Unknown
Speed
Unknown
Apparent Right ascension
Unknown
Apparent Declination
Unknown
Sunlit
N/A
Visualization observer readout
Local Sidereal Time
02:24:54
Azimuth
Unknown
Elevation
Unknown
Doppler factor
Unknown
Orbital elements
Apogee altitude
1,179.032 km
Perigee altitude
917.839 km
Semi-major axis
7,426.572 km
Eccentricity
0.01759
Inclination
83.0077°
RAAN
52.9207°
Arg. of periapsis
259.2098°
True anomaly
100.90466°
Mean anomaly
98.9211°
Eccentric anomaly
99.9136°
Mean motion
3.39126 °/min
Orbital period
106.16 mins
BSTAR
0.001773
Loading maneuver chart data...
Computing Atmospheric mass density...
Loading historical data...
Loading historical data...
Loading historical data...
Loading historical data...
Loading historical data...
Loading historical data...
Loading historical data...

Documentation

Showing up to 5 results
|